Deer Park, WA

11:54 PM PDT on May 26, 2017 (GMT -0700)
Deer Park

Weather History for KDEW - March, 2013

Change the Weather History Date:

Friday, March 22, 2013

  Actual Average Record
Temperature  
Mean Temperature 31 °F 40 °F  
Max Temperature 42 °F 51 °F 64 °F (2004)
Min Temperature 19 °F 29 °F 15 °F (2008)
Degree Days  
Heating Degree Days 34 25  
Month to date heating degree days 605 627  
Since 1 July heating degree days 5683 5992  
Cooling Degree Days 0 0  
Month to date cooling degree days 0 0  
Year to date cooling degree days 0 0  
Moisture  
Dew Point 21 °F    
Average Humidity 66    
Maximum Humidity 96    
Minimum Humidity 36    
Precipitation  
Precipitation T in 0.09 in 0.53 in (2003)
Month to date precipitation 1.05 1.38  
Year to date precipitation 3.48 5.61  
Sea Level Pressure  
Sea Level Pressure 30.15 in    
Wind  
Wind Speed 3 mph (South)    
Max Wind Speed 16 mph    
Max Gust Speed 22 mph    
Visibility 10 miles    
Events      
T = Trace of Precipitation, MM = Missing Value Source: NWS Daily Summary

Daily Weather History Graph

Daily Weather History Graph

Search for Another Location

Airport or City:

Trip Planner

Search our weather history database for the weather conditions in past years. The results will help you decide how hot, cold, wet, or windy it might be!

Date:

Astronomy

Mar. 22, 2013 Rise Set
Actual Time 6:47 AM PDT 7:05 PM PDT
Civil Twilight 6:16 AM PDT 7:36 PM PDT
Nautical Twilight 5:40 AM PDT 8:13 PM PDT
Astronomical Twilight 5:02 AM PDT 8:51 PM PDT
Moon 2:20 PM PDT (3/22) 4:09 AM PDT (3/22)
Length of Visible Light 13h 20m
Length of Day
12h 18m
Waxing Gibbous, 78% of the Moon is Illuminated
Mar 22
Waxing Gibbous
Mar 27
Full
Apr 2
Last Quarter
Apr 10
New
Apr 18
First Quarter

Hourly Weather History & Observations

Time (PDT) Temp. Windchill Dew Point Humidity Pressure Visibility Wind Dir Wind Speed Gust Speed Precip Events Conditions
12:53 AM 28.9 °F 23.9 °F 24.1 °F 82% 30.03 in 10.0 mi South 4.6 mph - N/A   Clear
1:53 AM 28.9 °F 23.9 °F 24.1 °F 82% 30.05 in 10.0 mi West 4.6 mph - N/A   Overcast
2:53 AM 26.1 °F - 24.1 °F 92% 30.06 in 10.0 mi Calm Calm - N/A   Overcast
3:53 AM 25.0 °F 20.7 °F 23.0 °F 92% 30.06 in 10.0 mi ESE 3.5 mph - N/A   Overcast
4:53 AM 26.1 °F - 21.9 °F 84% 30.07 in 10.0 mi Calm Calm - N/A   Partly Cloudy
5:53 AM 23.0 °F - 21.0 °F 92% 30.09 in 10.0 mi Calm Calm - N/A   Clear
6:53 AM 19.9 °F - 18.0 °F 92% 30.11 in 10.0 mi Calm Calm - N/A   Clear
7:53 AM 27.0 °F - 24.1 °F 89% 30.13 in 10.0 mi Calm Calm - N/A   Clear
8:53 AM 28.0 °F - 25.0 °F 88% 30.14 in 10.0 mi Calm Calm - N/A   Clear
9:53 AM 30.9 °F - 25.0 °F 79% 30.15 in 10.0 mi Calm Calm - N/A   Clear
10:53 AM 34.0 °F - 25.0 °F 70% 30.16 in 10.0 mi Calm Calm - N/A   Clear
11:53 AM 37.0 °F 33.3 °F 21.0 °F 52% 30.16 in 10.0 mi SSE 4.6 mph - N/A   Clear
12:53 PM 39.0 °F 34.0 °F 19.9 °F 46% 30.15 in 10.0 mi South 6.9 mph - N/A   Scattered Clouds
1:53 PM 42.1 °F 35.7 °F 17.1 °F 37% 30.13 in 10.0 mi SW 11.5 mph - N/A   Partly Cloudy
2:53 PM 41.0 °F 34.7 °F 19.9 °F 43% 30.14 in 10.0 mi East 10.4 mph - N/A   Mostly Cloudy
3:53 PM 41.0 °F 35.8 °F 21.0 °F 45% 30.16 in 10.0 mi ENE 8.1 mph - N/A   Mostly Cloudy
4:53 PM 39.9 °F - 17.1 °F 40% 30.17 in 10.0 mi Calm Calm - N/A   Overcast
5:53 PM 37.9 °F 29.6 °F 19.0 °F 47% 30.19 in 9.0 mi West 13.8 mph 20.7 mph 0.00 in   Overcast
6:53 PM 33.1 °F 30.0 °F 24.1 °F 70% 30.22 in 10.0 mi West 3.5 mph - N/A   Clear
7:53 PM 30.0 °F - 21.9 °F 72% 30.22 in 10.0 mi Calm Calm - N/A   Clear
8:53 PM 28.0 °F - 21.9 °F 78% 30.25 in 10.0 mi Calm Calm - N/A   Clear
9:53 PM 26.1 °F - 19.9 °F 78% 30.26 in 10.0 mi Calm Calm - N/A   Clear
10:53 PM 24.1 °F - 19.0 °F 81% 30.27 in 10.0 mi Calm Calm - N/A   Clear
11:53 PM 21.9 °F - 18.0 °F 85% 30.29 in 10.0 mi Calm Calm - N/A   Clear